TUI7B EDDS-EDDL

Flight info

Callsign TUI7B
Flight time 0h 41m
Altitude 22000
Route TAGIK2H/07 TAGIK Z3 ABUMO N850 GISEM Z505 ARPEG Z850 ADEMI T854 DOMUX DOMUX1A
Aircraft B738/M-SDE2E3FGHIRWXY/LB1

Departure

Time 2026-05-04 16:05
Airport Stuttgart Airport (EDDS)

Arrival

Time 2026-05-04 16:47
Airport Düsseldorf Airport (EDDL)
Time Latitude Longitude Altitude Speed Heading
2026-05-04 15:41 48.68880 9.19361 1288 ft 0 kts 345°
2026-05-04 15:57 48.68867 9.19366 1287 ft 3 kts 345°
2026-05-04 15:57 48.68847 9.19374 1288 ft 3 kts 346°
2026-05-04 15:57 48.68827 9.19380 1287 ft 3 kts 357°
2026-05-04 15:57 48.68809 9.19378 1287 ft 3 kts 34°
2026-05-04 15:58 48.68802 9.19366 1286 ft 2 kts 74°
2026-05-04 15:58 48.68797 9.19339 1285 ft 3 kts 74°
2026-05-04 15:58 48.68795 9.19327 1284 ft 0 kts 74°
2026-05-04 16:00 48.68795 9.19328 1284 ft 0 kts 74°
2026-05-04 16:00 48.68802 9.19365 1284 ft 8 kts 75°
2026-05-04 16:01 48.68817 9.19450 1285 ft 10 kts 75°
2026-05-04 16:01 48.68836 9.19550 1287 ft 10 kts 73°
2026-05-04 16:01 48.68855 9.19649 1285 ft 10 kts 73°
2026-05-04 16:01 48.68881 9.19786 1286 ft 15 kts 74°
2026-05-04 16:02 48.68866 9.19875 1286 ft 7 kts 152°
2026-05-04 16:02 48.68820 9.19912 1287 ft 8 kts 143°
2026-05-04 16:02 48.68703 9.19978 1288 ft 7 kts 164°
2026-05-04 16:03 48.68690 9.19983 1286 ft 0 kts 164°
2026-05-04 16:03 48.68689 9.19983 1286 ft 1 kts 164°
2026-05-04 16:03 48.68648 9.20001 1285 ft 11 kts 164°
2026-05-04 16:04 48.68587 9.20041 1287 ft 6 kts 124°
2026-05-04 16:04 48.68588 9.20086 1287 ft 4 kts 76°
2026-05-04 16:04 48.68622 9.20267 1286 ft 48 kts 73°
2026-05-04 16:05 48.68780 9.21097 1286 ft 115 kts 74°
2026-05-04 16:05 48.69054 9.22542 1300 ft 168 kts 73°
2026-05-04 16:05 48.69629 9.26026 2916 ft 168 kts 70°
2026-05-04 16:06 48.69972 9.27782 3437 ft 185 kts 71°
2026-05-04 16:06 48.71120 9.33606 4136 ft 239 kts 72°
2026-05-04 16:07 48.71785 9.37003 4598 ft 265 kts 72°
2026-05-04 16:07 48.75100 9.43406 6695 ft 288 kts 13°
2026-05-04 16:08 48.77107 9.43651 7400 ft 292 kts 354°
2026-05-04 16:08 48.82210 9.38965 9728 ft 293 kts 319°
2026-05-04 16:09 48.85534 9.35004 10571 ft 324 kts 319°
2026-05-04 16:09 48.89319 9.30531 11164 ft 358 kts 320°
2026-05-04 16:10 48.93303 9.25863 12607 ft 364 kts 320°
2026-05-04 16:11 48.99396 9.18724 14711 ft 375 kts 319°
2026-05-04 16:11 49.01444 9.16318 15378 ft 379 kts 319°
2026-05-04 16:12 49.07796 9.08842 17426 ft 391 kts 319°
2026-05-04 16:12 49.14352 9.01100 19194 ft 402 kts 319°
2026-05-04 16:13 49.19043 8.96320 20284 ft 415 kts 336°
2026-05-04 16:13 49.24835 8.95475 21440 ft 427 kts
2026-05-04 16:14 49.30790 8.96462 21955 ft 432 kts
2026-05-04 16:14 49.36750 8.97380 21981 ft 430 kts
2026-05-04 16:15 49.45707 8.98639 21965 ft 432 kts
2026-05-04 16:16 49.51695 8.99479 21972 ft 432 kts
2026-05-04 16:16 49.60675 9.00717 21981 ft 432 kts
2026-05-04 16:17 49.66664 9.01561 21980 ft 433 kts
2026-05-04 16:18 49.75673 9.02863 21981 ft 434 kts
2026-05-04 16:18 49.78681 9.03298 21978 ft 434 kts
2026-05-04 16:19 49.87696 9.04601 21992 ft 433 kts
2026-05-04 16:19 49.93655 9.04279 21981 ft 426 kts 345°
2026-05-04 16:20 50.01948 8.99678 21975 ft 422 kts 334°
2026-05-04 16:20 50.07421 8.96349 21966 ft 422 kts 335°
2026-05-04 16:21 50.15764 8.91848 21965 ft 428 kts 347°
2026-05-04 16:22 50.21691 8.90704 21969 ft 430 kts 350°
2026-05-04 16:22 50.30589 8.88888 21968 ft 430 kts 349°
2026-05-04 16:23 50.39444 8.87028 21970 ft 430 kts 350°
2026-05-04 16:24 50.51309 8.84533 21968 ft 430 kts 350°
2026-05-04 16:25 50.57241 8.83282 21971 ft 430 kts 350°
2026-05-04 16:26 50.67228 8.77281 21946 ft 417 kts 317°
2026-05-04 16:26 50.73783 8.68361 21964 ft 414 kts 316°
2026-05-04 16:27 50.78148 8.62441 21967 ft 413 kts 316°
2026-05-04 16:28 50.84694 8.53621 21972 ft 415 kts 316°
2026-05-04 16:28 50.91300 8.44700 21982 ft 418 kts 316°
2026-05-04 16:29 51.00162 8.32676 21992 ft 420 kts 316°
2026-05-04 16:30 51.07632 8.25259 21993 ft 424 kts 328°
2026-05-04 16:31 51.12669 8.20866 21945 ft 399 kts 327°
2026-05-04 16:31 51.19797 8.14494 20855 ft 385 kts 327°
2026-05-04 16:32 51.26733 8.08268 19644 ft 379 kts 327°
2026-05-04 16:33 51.31310 8.04155 18824 ft 377 kts 328°
2026-05-04 16:33 51.35864 8.00055 17938 ft 375 kts 328°
2026-05-04 16:34 51.40373 7.95987 17075 ft 369 kts 328°
2026-05-04 16:34 51.42606 7.93973 16590 ft 368 kts 328°
2026-05-04 16:35 51.46919 7.84863 15361 ft 346 kts 275°
2026-05-04 16:35 51.46235 7.73958 14710 ft 305 kts 260°
2026-05-04 16:36 51.45981 7.70663 14543 ft 292 kts 260°
2026-05-04 16:36 51.45473 7.64264 13639 ft 289 kts 260°
2026-05-04 16:37 51.44955 7.57999 12956 ft 273 kts 260°
2026-05-04 16:37 51.44708 7.55061 12427 ft 269 kts 260°
2026-05-04 16:37 51.44201 7.49131 11261 ft 267 kts 260°
2026-05-04 16:38 51.43696 7.43271 10192 ft 263 kts 260°
2026-05-04 16:39 51.42948 7.34662 8568 ft 256 kts 260°
2026-05-04 16:39 51.42457 7.29059 7497 ft 251 kts 259°
2026-05-04 16:40 51.41972 7.23560 6455 ft 247 kts 259°
2026-05-04 16:40 51.41499 7.18207 5713 ft 229 kts 259°
2026-05-04 16:41 51.41084 7.13525 5334 ft 201 kts 259°
2026-05-04 16:41 51.40492 7.06919 4140 ft 199 kts 259°
2026-05-04 16:42 51.39857 7.00567 3486 ft 176 kts 245°
2026-05-04 16:43 51.38466 6.97289 3105 ft 179 kts 232°
2026-05-04 16:43 51.37022 6.94221 2640 ft 163 kts 231°
2026-05-04 16:43 51.36344 6.92799 2430 ft 160 kts 231°
2026-05-04 16:44 51.33650 6.87150 1571 ft 155 kts 232°
2026-05-04 16:45 51.32348 6.84407 1135 ft 152 kts 231°
2026-05-04 16:46 51.30451 6.80428 541 ft 152 kts 232°
2026-05-04 16:46 51.29170 6.77730 145 ft 146 kts 231°
2026-05-04 16:47 51.28251 6.75807 128 ft 53 kts 232°
2026-05-04 16:47 51.27917 6.75290 123 ft 17 kts 160°
2026-05-04 16:48 51.27872 6.75325 123 ft 0 kts 153°
2026-05-04 16:49 51.27848 6.75426 121 ft 11 kts 63°
2026-05-04 16:49 51.27963 6.75668 128 ft 12 kts 52°
2026-05-04 16:50 51.28071 6.75900 125 ft 16 kts 53°
2026-05-04 16:50 51.28198 6.76178 124 ft 13 kts 71°
2026-05-04 16:51 51.28117 6.76381 125 ft 7 kts 139°
2026-05-04 16:51 51.28072 6.76382 126 ft 6 kts 194°
2026-05-04 16:51 51.28039 6.76367 124 ft 0 kts 197°